When you browse on this site, cookies collect data to enhance your experience and personalize the content and advertising you see.
Visit our Privacy Policy to learn more. By continuing to use the site, you agree to this use of cookies and data.
  • In Austria
  • List of Countries
  • For 7 days
  • Water Temperature
  • Weather Map
  • News
  • Weather Widgets
  • user-avatar
    Login

    Hourly Weather Plodorodnyy

    Today, 24 January, Friday

    Time Temperature Precipitation Wind Pressure Humidity
    00:00 -7°C° 0.3 mm 1 mps 728 mmHg 96%
    01:00 -8°C° 0.3 mm 2 mps 729 mmHg 96%
    02:00 -10°C° 0.1 mm 2 mps 729 mmHg 96%
    03:00 -12°C° 0.1 mm 2 mps 730 mmHg 96%
    04:00 -13°C° 0 mm 2 mps 730 mmHg 97%
    05:00 -14°C° 0 mm 2 mps 730 mmHg 97%
    06:00 -15°C° 0 mm 2 mps 731 mmHg 97%
    07:00 -16°C° 0 mm 2 mps 731 mmHg 98%
    08:00 -16°C° 0 mm 2 mps 732 mmHg 97%
    09:00 -17°C° 0 mm 2 mps 732 mmHg 97%
    10:00 -17°C° 0 mm 2 mps 733 mmHg 97%
    11:00 -16°C° 0 mm 2 mps 733 mmHg 96%
    12:00 -15°C° 0 mm 2 mps 734 mmHg 96%
    13:00 -14°C° 0 mm 2 mps 735 mmHg 95%
    14:00 -15°C° 0 mm 2 mps 735 mmHg 96%
    15:00 -15°C° 0 mm 2 mps 735 mmHg 96%
    16:00 -17°C° 0 mm 3 mps 735 mmHg 97%
    17:00 -17°C° 0 mm 3 mps 736 mmHg 97%
    18:00 -18°C° 0 mm 3 mps 736 mmHg 98%
    19:00 -19°C° 0 mm 3 mps 736 mmHg 98%
    20:00 -19°C° 0 mm 3 mps 736 mmHg 98%
    21:00 -20°C° 0 mm 4 mps 736 mmHg 98%
    22:00 -22°C° 0 mm 4 mps 737 mmHg 97%
    23:00 -22°C° 0 mm 4 mps 736 mmHg 96%

    Tomorrow, 25 January, Saturday

    Time Temperature Precipitation Wind Pressure Humidity
    00:00 -21°C° 0 mm 5 mps 736 mmHg 96%
    01:00 -21°C° 0 mm 5 mps 736 mmHg 95%
    02:00 -22°C° 0 mm 6 mps 735 mmHg 94%
    03:00 -21°C° 0 mm 6 mps 735 mmHg 93%
    04:00 -21°C° 0 mm 7 mps 735 mmHg 93%
    05:00 -20°C° 0.1 mm 7 mps 734 mmHg 93%
    06:00 -19°C° 0.1 mm 8 mps 733 mmHg 93%
    07:00 -18°C° 0.1 mm 8 mps 733 mmHg 93%
    08:00 -17°C° 0.4 mm 9 mps 732 mmHg 93%
    09:00 -16°C° 0.4 mm 9 mps 732 mmHg 93%
    10:00 -14°C° 0.4 mm 9 mps 731 mmHg 92%
    11:00 -14°C° 0.3 mm 9 mps 731 mmHg 93%
    12:00 -12°C° 0.3 mm 9 mps 730 mmHg 93%
    13:00 -11°C° 0.3 mm 9 mps 729 mmHg 93%
    14:00 -10°C° 0.2 mm 9 mps 729 mmHg 93%
    15:00 -10°C° 0.2 mm 8 mps 729 mmHg 93%
    16:00 -8°C° 0.2 mm 8 mps 729 mmHg 93%
    17:00 -8°C° 0.1 mm 7 mps 729 mmHg 93%
    18:00 -7°C° 0.1 mm 7 mps 729 mmHg 94%
    19:00 -6°C° 0.1 mm 6 mps 729 mmHg 94%
    20:00 -5°C° 0.2 mm 6 mps 728 mmHg 95%
    21:00 -5°C° 0.2 mm 6 mps 728 mmHg 96%
    22:00 -4°C° 0.2 mm 6 mps 727 mmHg 97%
    23:00 -4°C° 0.5 mm 7 mps 727 mmHg 97%

    Day after tomorrow, 26 January, Sunday

    Time Temperature Precipitation Wind Pressure Humidity
    00:00 -5°C° 0.5 mm 8 mps 726 mmHg 97%
    01:00 -4°C° 0.5 mm 9 mps 725 mmHg 97%
    02:00 -4°C° 0.4 mm 8 mps 724 mmHg 97%
    03:00 -4°C° 0.4 mm 7 mps 724 mmHg 96%
    04:00 -4°C° 0.4 mm 7 mps 723 mmHg 96%
    05:00 -5°C° 0.8 mm 8 mps 722 mmHg 96%
    06:00 -5°C° 0.8 mm 8 mps 721 mmHg 96%
    07:00 -5°C° 0.8 mm 9 mps 721 mmHg 96%
    08:00 -6°C° 0.6 mm 9 mps 721 mmHg 93%
    09:00 -7°C° 0.6 mm 8 mps 721 mmHg 91%
    10:00 -7°C° 0.6 mm 8 mps 721 mmHg 88%
    11:00 -8°C° 0.1 mm 8 mps 721 mmHg 90%
    12:00 -10°C° 0.1 mm 8 mps 721 mmHg 92%
    13:00 -10°C° 0.1 mm 8 mps 722 mmHg 93%
    14:00 -9°C° 0.3 mm 7 mps 723 mmHg 93%
    15:00 -9°C° 0.3 mm 7 mps 723 mmHg 92%
    16:00 -9°C° 0.3 mm 7 mps 724 mmHg 91%
    17:00 -9°C° 0.1 mm 7 mps 726 mmHg 91%
    18:00 -11°C° 0.1 mm 8 mps 727 mmHg 90%
    19:00 -11°C° 0.1 mm 8 mps 728 mmHg 90%
    20:00 -12°C° 0 mm 7 mps 729 mmHg 91%
    21:00 -13°C° 0 mm 7 mps 730 mmHg 92%
    22:00 -14°C° 0 mm 6 mps 732 mmHg 93%
    23:00 -14°C° 0 mm 6 mps 732 mmHg 93%

    27 January, Monday

    Time Temperature Precipitation Wind Pressure Humidity
    00:00 -14°C° 0 mm 5 mps 733 mmHg 94%
    01:00 -14°C° 0 mm 5 mps 734 mmHg 94%
    02:00 -14°C° 0 mm 5 mps 734 mmHg 94%
    03:00 -15°C° 0 mm 6 mps 735 mmHg 94%
    04:00 -15°C° 0 mm 6 mps 735 mmHg 94%
    05:00 -15°C° 0 mm 6 mps 735 mmHg 94%
    06:00 -14°C° 0 mm 5 mps 735 mmHg 94%
    07:00 -14°C° 0 mm 5 mps 736 mmHg 94%
    08:00 -14°C° 0 mm 5 mps 736 mmHg 94%
    09:00 -14°C° 0 mm 5 mps 736 mmHg 95%
    10:00 -14°C° 0 mm 4 mps 736 mmHg 95%
    11:00 -13°C° 0.2 mm 5 mps 736 mmHg 95%
    12:00 -12°C° 0.2 mm 5 mps 736 mmHg 94%
    13:00 -11°C° 0.2 mm 5 mps 735 mmHg 94%
    14:00 -11°C° 0.4 mm 5 mps 735 mmHg 94%
    15:00 -11°C° 0.4 mm 5 mps 734 mmHg 94%
    16:00 -9°C° 0.4 mm 4 mps 734 mmHg 95%
    17:00 -8°C° 0.5 mm 4 mps 734 mmHg 95%
    18:00 -7°C° 0.5 mm 3 mps 734 mmHg 96%
    19:00 -6°C° 0.5 mm 3 mps 734 mmHg 96%
    20:00 -7°C° 0.1 mm 3 mps 734 mmHg 96%
    21:00 -9°C° 0.1 mm 3 mps 735 mmHg 96%
    22:00 -10°C° 0.1 mm 3 mps 735 mmHg 95%
    23:00 -13°C° 0 mm 3 mps 736 mmHg 96%

    28 January, Tuesday

    Time Temperature Precipitation Wind Pressure Humidity
    00:00 -15°C° 0 mm 4 mps 736 mmHg 96%
    01:00 -16°C° 0 mm 4 mps 737 mmHg 97%
    02:00 -16°C° 0 mm 4 mps 738 mmHg 96%
    03:00 -15°C° 0 mm 4 mps 739 mmHg 96%
    04:00 -15°C° 0 mm 4 mps 739 mmHg 95%
    05:00 -16°C° 0 mm 4 mps 740 mmHg 96%
    06:00 -17°C° 0 mm 4 mps 741 mmHg 96%
    07:00 -18°C° 0 mm 3 mps 742 mmHg 96%
    08:00 -18°C° 0 mm 3 mps 743 mmHg 95%
    09:00 -18°C° 0 mm 2 mps 744 mmHg 95%
    10:00 -19°C° 0 mm 2 mps 745 mmHg 94%
    11:00 -18°C° 0 mm 2 mps 745 mmHg 93%
    12:00 -16°C° 0 mm 1 mps 746 mmHg 92%
    13:00 -15°C° 0 mm 1 mps 746 mmHg 91%
    14:00 -16°C° 0 mm 1 mps 746 mmHg 91%
    15:00 -16°C° 0 mm 1 mps 747 mmHg 90%
    16:00 -17°C° 0 mm 1 mps 747 mmHg 89%
    17:00 -18°C° 0 mm 1 mps 748 mmHg 88%
    18:00 -18°C° 0 mm 1 mps 748 mmHg 87%
    19:00 -18°C° 0 mm 1 mps 748 mmHg 86%
    20:00 -19°C° 0 mm 1 mps 749 mmHg 86%
    21:00 -19°C° 0 mm 1 mps 749 mmHg 85%
    22:00 -19°C° 0 mm 1 mps 749 mmHg 85%
    23:00 -21°C° 0 mm 2 mps 750 mmHg 85%

    29 January, Wednesday

    Time Temperature Precipitation Wind Pressure Humidity
    00:00 -21°C° 0 mm 2 mps 750 mmHg 85%
    01:00 -21°C° 0 mm 2 mps 750 mmHg 85%
    02:00 -20°C° 0 mm 2 mps 750 mmHg 84%
    03:00 -20°C° 0 mm 2 mps 750 mmHg 83%
    04:00 -20°C° 0 mm 2 mps 750 mmHg 82%
    05:00 -22°C° 0 mm 3 mps 751 mmHg 82%
    06:00 -22°C° 0 mm 3 mps 751 mmHg 81%
    07:00 -22°C° 0 mm 3 mps 751 mmHg 80%
    08:00 -21°C° 0 mm 3 mps 751 mmHg 80%
    09:00 -21°C° 0 mm 3 mps 751 mmHg 79%
    10:00 -22°C° 0 mm 4 mps 751 mmHg 78%
    11:00 -20°C° 0 mm 4 mps 751 mmHg 77%
    12:00 -19°C° 0 mm 4 mps 751 mmHg 75%
    13:00 -18°C° 0 mm 4 mps 751 mmHg 74%
    14:00 -18°C° 0 mm 4 mps 751 mmHg 74%
    15:00 -18°C° 0 mm 4 mps 751 mmHg 75%
    16:00 -18°C° 0 mm 4 mps 751 mmHg 75%
    17:00 -18°C° 0 mm 4 mps 751 mmHg 75%
    18:00 -19°C° 0 mm 5 mps 751 mmHg 74%
    19:00 -18°C° 0 mm 5 mps 751 mmHg 74%
    20:00 -18°C° 0 mm 5 mps 751 mmHg 74%
    21:00 -18°C° 0 mm 6 mps 751 mmHg 75%
    22:00 -18°C° 0 mm 6 mps 751 mmHg 76%
    23:00 -18°C° 0 mm 6 mps 751 mmHg 79%
    Show more